Location: Doschendorf
(50.0069°N, 11.0602°E)
Time: 12:39:20
(UTC+00:00)

NOSS 3-1 (C) - Pass Details

Date: 17 November 2019
Orbit: 765 x 1444 km, 63.4° (Epoch: 11 December)

Event Time Altitude Azimuth Distance (km) Brightness Sun altitude
Rises 18:30:25 0° 255° (WSW) 3,396 7.4 -28.8°
Reaches altitude 10° 18:32:53 10° 263° (W) 2,534 6.6 -29.2°
Maximum altitude 18:38:24 39° 333° (NNW) 1,416 4.5 -30.1°
Enters shadow 18:40:16 33° 8° (N) 1,638 4.6 -30.4°
